Theta_e
321 324 329 333 335 337 338 336 335 336 336 336 337 337 337 337 337 337 338 337 338 338 339 339 338 339 336 334 331 328 327 326 327 337 342 342 342 341 339 339 340 344 343
318 322 328 331 331 333 334 336 337 337 337 337 338 338 338 338 338 337 337 338 337 338 339 340 340 338 339 337 335 331 327 325 323 326 337 341 342 341 339 340 339 344 343
319 322 324 326 327 329 330 332 334 335 335 335 336 334 335 335 335 336 336 337 337 337 337 339 339 339 339 338 336 336 336 332 326 321 328 342 343 345 342 339 340 340 341
319 317 320 322 323 323 326 328 330 330 331 331 331 332 333 332 332 333 333 334 334 336 337 338 338 338 337 336 336 334 336 338 337 335 328 339 342 343 342 340 339 341 341
313 314 316 318 319 318 319 321 323 323 324 325 326 328 328 329 328 328 329 331 330 333 335 336 336 336 336 335 335 334 333 330 334 337 336 334 341 343 342 342 341 342 341
309 311 312 314 315 315 315 315 316 315 315 317 318 319 322 319 317 320 323 326 328 328 329 329 331 332 332 333 333 332 331 331 331 336 340 337 335 341 341 341 340 339 343
300 305 308 309 310 311 311 311 310 310 309 309 309 313 313 309 309 311 313 315 317 320 322 325 327 328 330 331 331 330 331 330 334 334 336 339 338 335 339 341 340 338 341
299 298 299 301 305 306 307 306 306 306 306 305 303 302 303 299 299 300 300 304 306 310 314 317 321 323 325 327 329 329 329 329 333 333 333 335 337 336 329 337 339 339 338
297 297 297 297 295 297 297 299 299 300 301 301 298 296 295 295 296 296 296 296 297 298 299 303 309 315 320 323 325 326 328 328 329 332 333 333 333 334 333 329 338 340 338
296 296 296 295 295 295 295 295 295 295 295 295 295 295 295 296 295 295 295 295 295 296 296 299 298 298 302 310 318 321 324 326 330 331 331 331 332 331 331 333 329 338 339
296 295 296 295 295 295 295 294 294 294 295 295 295 295 296 296 295 296 294 295 295 295 295 295 295 296 296 298 300 307 314 319 322 327 331 330 331 331 333 331 331 330 337
297 295 295 295 294 294 294 294 294 294 294 294 294 294 294 294 294 294 294 294 294 294 295 295 295 295 298 300 301 301 303 307 310 318 324 329 329 330 333 334 331 331 333
297 295 295 294 294 294 294 295 295 295 294 294 294 294 293 294 293 294 294 294 294 294 295 295 296 297 298 300 300 301 301 302 303 308 315 319 324 327 330 332 333 331 331
295 295 294 294 294 293 294 295 295 295 294 294 293 293 293 294 293 293 294 293 294 294 294 294 296 296 298 298 300 300 301 301 301 302 305 308 312 318 324 329 332 333 332
295 295 294 294 294 293 293 294 294 294 293 293 293 292 292 292 291 291 292 292 293 293 293 293 294 295 296 298 299 300 300 300 301 301 302 303 303 307 319 324 327 331 333
295 295 294 294 294 293 294 293 293 293 292 292 291 291 291 290 290 290 291 291 291 291 291 292 292 293 295 296 298 298 298 299 300 301 301 302 302 301 302 316 325 327 330
295 295 294 293 292 293 293 292 292 292 291 291 290 290 289 288 288 288 289 290 290 289 290 291 291 292 293 294 295 295 296 298 299 300 300 301 302 302 301 299 309 325 328
295 294 294 292 292 292 292 291 291 291 290 290 289 289 288 288 288 288 288 289 288 288 289 290 290 291 292 292 293 294 294 296 297 299 300 300 301 301 302 302 307 314 324
294 294 293 292 292 291 291 290 290 290 290 289 289 288 288 288 287 286 286 287 287 287 288 288 289 290 290 291 292 293 294 295 296 297 299 299 299 300 301 301 301 302 316
293 293 293 292 292 291 290 289 289 289 289 288 288 287 287 286 286 285 286 286 286 286 287 288 288 289 290 291 292 291 293 295 296 296 297 298 299 300 300 301 301 302 301
293 292 292 292 291 291 290 290 290 290 289 288 288 288 287 286 285 284 285 285 286 286 286 286 287 288 290 289 290 292 292 294 296 297 298 299 300 300 301 302 302 303 305
293 292 292 291 291 290 290 289 288 288 287 287 287 287 286 285 285 284 284 284 285 285 286 286 286 287 287 288 289 290 296 294 298 295 294 295 297 298 299 302 304 305 306
292 292 291 291 290 289 288 288 287 287 286 286 286 286 285 286 284 283 283 283 284 284 285 285 285 286 286 287 287 289 293 294 295 294 294 294 295 297 299 299 300 304 308
292 292 291 290 289 288 287 287 287 287 288 287 285 285 285 284 283 282 282 282 283 283 284 284 284 284 284 285 286 287 288 289 292 294 293 293 293 294 295 297 299 300 300
292 291 291 290 288 287 287 287 286 286 285 285 284 284 284 283 282 282 281 282 282 283 283 283 283 283 283 284 284 285 286 287 288 291 292 292 291 293 293 294 297 299 299
291 291 290 289 288 287 286 286 285 285 285 284 283 282 282 282 281 281 281 281 281 281 282 282 282 282 282 282 283 283 284 287 287 288 291 291 291 289 290 291 294 299 300
Wind_Speed
3 9 9 8 8 11 11 6 2 3 3 4 6 7 7 7 7 7 8 7 7 9 8 8 9 10 10 10 10 11 12 12 12 11 11 12 13 13 13 12 12 11 12
4 7 9 9 4 4 6 8 9 8 7 8 8 7 7 8 7 8 8 8 8 7 8 9 9 10 11 11 12 12 12 13 14 13 12 13 14 15 13 11 12 13 15
4 4 8 9 7 3 4 4 5 6 6 6 7 6 7 6 7 8 8 6 5 7 8 9 10 11 11 11 12 13 13 13 13 14 14 12 13 15 14 13 14 16 17
7 5 7 7 9 10 7 4 5 4 3 4 6 8 9 7 7 5 5 5 4 5 7 8 10 11 13 14 13 13 13 13 15 14 12 12 13 15 16 15 16 16 18
6 6 7 9 9 11 12 12 11 9 9 7 8 10 4 8 4 4 5 6 5 7 8 8 7 9 11 13 14 14 14 15 15 15 13 12 13 15 18 16 16 16 17
8 7 6 8 9 10 11 11 11 11 12 13 13 14 13 13 12 10 9 8 9 10 11 10 8 10 12 12 13 14 14 14 15 14 14 14 15 16 19 18 18 17 19
8 8 6 8 8 9 10 10 10 11 12 12 12 12 12 13 12 11 12 11 11 11 12 13 15 15 15 14 14 15 14 15 14 14 16 16 15 18 18 18 20 20 20
8 8 6 7 9 9 9 9 10 10 11 11 10 10 8 8 9 9 10 11 12 12 13 12 13 16 17 16 17 17 17 17 15 16 16 17 18 20 20 19 21 23 23
9 8 7 7 7 8 7 8 8 9 9 9 10 9 9 9 10 11 10 11 13 14 13 13 15 17 17 17 17 17 18 19 19 18 18 19 19 22 19 21 21 24 25
9 8 7 7 6 6 6 7 8 8 7 8 8 9 9 10 10 11 11 12 12 13 13 13 16 18 20 21 20 21 21 21 18 18 20 20 22 25 22 22 23 25 27
10 10 9 9 8 7 6 6 8 9 9 9 8 8 9 9 10 11 13 14 14 14 14 14 16 18 19 19 20 22 22 13 15 16 19 20 22 24 23 24 24 26 27
15 11 10 10 9 8 6 6 6 6 7 7 8 7 8 9 10 11 12 13 14 15 15 17 17 17 15 14 15 17 12 15 18 18 20 21 23 23 24 26 28 27 27
16 13 12 12 10 8 7 5 4 4 4 6 7 7 8 8 9 10 11 12 14 16 16 17 15 13 15 14 14 14 15 16 16 18 21 24 26 23 24 27 29 31 30
19 16 13 12 11 10 8 6 5 4 4 4 5 6 7 8 10 11 11 13 14 15 16 14 14 16 15 15 16 16 16 16 17 19 22 24 26 27 29 28 29 32 34
21 18 15 13 11 11 9 7 5 4 3 3 4 6 7 8 10 11 11 11 12 13 14 15 15 16 16 16 16 17 19 19 19 19 21 26 30 30 27 30 32 32 34
22 20 17 15 13 12 9 7 5 4 2 2 2 3 6 8 9 9 11 12 13 15 16 16 16 16 16 17 18 18 20 20 21 21 22 23 28 32 35 30 32 34 35
25 22 20 17 16 13 11 8 5 4 2 1 2 4 6 8 9 12 12 13 14 17 17 16 17 16 17 18 19 20 21 21 21 23 24 24 25 28 32 36 36 34 36
26 25 21 19 17 14 11 8 7 5 3 1 2 3 6 9 12 12 12 12 14 15 15 16 17 19 19 20 22 23 23 24 24 25 26 26 26 27 28 30 29 34 38
28 24 20 17 16 14 12 10 8 7 5 3 4 5 8 11 12 12 12 12 13 14 14 15 16 17 21 23 24 26 27 28 27 26 28 28 29 31 31 31 33 36 38
27 25 23 21 18 17 14 10 8 7 6 5 5 6 9 10 11 12 13 13 13 14 14 14 16 16 19 22 27 30 27 28 28 27 29 26 25 27 29 30 32 32 35
27 26 25 22 20 16 13 10 7 6 6 6 7 10 12 12 12 13 13 13 12 13 15 15 16 17 16 19 23 28 25 29 18 21 20 21 22 22 25 28 30 31 30
31 28 26 24 21 19 14 12 8 7 7 8 10 11 11 12 14 15 13 13 13 13 13 13 15 17 16 9 12 21 9 24 3 20 31 28 29 30 30 29 29 31 32
32 33 30 26 23 20 17 14 11 9 9 8 9 8 10 15 15 13 13 14 13 13 14 15 14 14 15 15 11 8 6 7 18 17 24 29 25 27 30 33 36 31 29
36 32 29 26 23 20 19 16 13 12 12 10 7 10 13 14 14 13 14 14 15 14 16 16 14 16 16 18 14 15 18 18 6 13 21 26 33 33 33 35 35 37 38
31 32 29 26 23 22 22 18 14 14 12 9 9 13 14 16 16 15 15 15 17 16 17 18 18 19 19 21 19 20 20 21 25 12 17 17 29 31 36 40 34 37 38
30 30 29 28 25 23 22 21 19 15 12 12 12 10 12 14 14 14 14 16 17 17 17 18 19 20 23 25 24 23 24 16 16 16 13 21 23 34 35 38 41 39 39
Wind_Direction
7 2 16 27 31 41 53 37 353 360 12 1 359 357 356 346 345 346 345 348 348 349 346 352 351 347 341 331 320 313 310 308 305 302 293 289 285 280 280 276 264 249 245
22 20 38 36 29 35 58 60 72 72 67 53 44 39 31 25 10 356 342 330 321 331 331 332 332 334 332 335 333 327 318 313 308 301 295 289 287 281 278 274 265 247 245
98 64 42 52 62 73 62 82 76 88 83 69 59 43 34 40 40 36 24 11 350 326 322 324 325 322 322 321 324 322 323 322 314 309 297 289 277 275 276 275 269 261 250
136 84 65 78 64 62 72 86 85 78 92 71 59 63 51 43 48 36 16 356 349 353 338 326 316 312 307 308 310 312 310 310 312 312 301 286 280 274 275 272 273 266 255
136 97 74 72 65 62 61 62 66 60 57 55 61 68 58 54 313 334 328 11 342 6 12 359 322 301 298 298 304 308 311 308 306 306 297 283 276 275 276 271 276 275 263
146 131 95 79 73 68 67 66 63 58 57 59 56 55 60 54 40 28 16 332 311 305 298 305 319 288 288 291 296 299 303 303 304 297 287 286 280 270 267 271 270 262 262
138 149 100 99 89 78 72 70 69 65 60 58 56 57 50 43 34 30 23 16 2 338 326 320 299 294 289 287 284 285 294 301 301 288 286 284 281 277 273 275 271 265 260
148 154 151 132 107 95 85 76 72 71 68 64 59 56 44 28 18 360 360 350 341 332 312 314 316 302 298 298 291 285 283 282 290 285 280 280 279 278 279 274 270 265 262
165 161 152 131 117 104 104 95 85 81 77 72 60 55 44 32 21 13 2 349 337 326 321 313 299 293 290 292 294 295 288 282 279 275 275 275 276 280 281 277 271 266 260
166 165 161 153 137 132 116 106 99 95 86 72 57 44 37 33 25 16 9 3 357 352 344 331 311 304 298 293 289 287 289 290 288 275 271 269 270 272 279 279 270 267 263
174 173 169 164 162 149 131 116 100 93 82 73 62 47 36 26 18 10 1 353 349 347 344 340 334 325 315 306 298 293 294 292 290 280 274 270 269 271 274 274 274 267 265
183 178 175 174 173 163 150 133 113 93 78 65 52 40 31 20 12 6 357 354 351 348 347 344 340 338 335 325 316 309 301 294 291 281 275 272 272 272 271 271 270 272 266
187 184 182 182 178 167 161 148 131 110 83 57 39 28 19 16 8 3 356 353 354 351 350 347 343 341 330 322 315 309 301 297 288 281 275 271 266 273 273 270 268 267 269
185 186 184 182 176 172 163 157 149 134 100 69 40 25 20 12 4 1 357 351 351 345 343 340 336 332 327 320 312 307 301 298 291 284 279 278 273 270 268 269 267 266 266
189 185 185 183 182 181 176 172 157 133 106 82 44 10 8 5 359 352 347 345 341 338 335 334 332 330 325 319 311 305 302 299 292 287 284 279 273 269 269 264 264 263 263
192 188 184 185 187 186 183 173 159 144 119 77 31 348 348 353 348 343 341 339 336 337 332 329 328 326 320 316 310 305 299 293 290 285 283 283 280 277 269 266 262 261 260
193 188 190 187 189 187 186 179 174 175 155 110 358 342 334 343 341 340 334 333 330 332 328 326 326 324 320 314 306 304 301 296 291 289 286 283 282 280 279 271 261 260 259
193 192 188 190 189 189 189 189 197 199 187 209 284 301 318 327 325 329 327 320 319 322 322 324 326 322 317 313 309 305 302 297 293 287 283 280 280 279 276 272 266 262 257
193 190 190 191 191 191 193 197 202 204 204 241 270 303 307 310 310 315 309 306 311 315 317 317 318 317 314 312 309 306 300 294 289 286 281 280 279 278 276 274 270 259 255
194 192 191 192 192 193 195 199 207 211 222 250 250 278 282 294 299 305 309 309 307 306 311 313 312 311 309 310 309 303 301 294 285 284 281 283 281 278 278 278 275 271 266
194 193 195 193 194 192 194 197 202 197 212 250 245 275 274 291 297 302 302 302 299 302 309 315 312 312 312 315 315 316 305 291 284 285 294 294 291 285 281 281 280 276 270
195 196 197 198 197 198 198 199 196 202 231 236 248 262 266 290 294 298 300 299 295 298 305 311 315 308 306 309 317 307 318 313 226 311 298 287 286 291 288 287 285 280 274
197 197 197 198 199 201 202 202 211 232 249 251 249 256 274 286 293 294 288 286 296 305 303 299 300 297 296 296 295 281 310 299 327 309 307 295 294 292 285 283 282 279 282
200 197 198 197 198 201 204 206 205 214 224 227 251 266 283 289 294 287 289 293 301 296 289 289 289 284 283 280 286 252 251 276 299 310 297 295 294 286 284 280 278 277 275
196 194 196 196 195 199 204 206 206 220 236 253 271 281 285 289 286 289 290 294 292 286 285 284 284 279 273 273 271 272 275 268 263 270 288 293 288 280 283 281 276 272 271
197 196 193 194 195 194 196 201 208 216 224 236 248 262 271 273 286 283 283 285 285 287 286 286 284 280 279 276 273 271 266 259 263 265 267 286 285 285 281 277 276 277 272